Total_Precipitation_Accumulation
0.16 0.36 0.77 1.27 2.21 2.40 1.85 1.08 0.80 0.62 0.62 0.67 0.67 0.67 0.81 1.09 1.53 2.35 2.39 1.77 1.16 1.10 1.31 1.71 2.19 2.14 2.19 2.10 1.91 1.88 1.85 1.82 1.83 1.89 1.99 2.05 2.13 2.16 2.27 2.40 2.59 3.05 3.29 3.14 3.07 3.03 2.95 2.85 2.99
0.32 0.60 1.04 1.75 2.45 2.16 1.61 0.91 0.67 0.51 0.50 0.51 0.47 0.54 0.73 0.92 0.88 1.33 1.90 1.63 1.04 0.97 1.06 1.23 1.84 2.20 2.35 2.14 1.97 1.90 1.85 1.85 1.78 1.94 1.93 1.96 2.16 2.32 2.48 2.52 2.58 2.78 2.93 2.89 2.95 2.90 2.96 2.86 2.81
0.53 0.82 1.22 1.80 1.54 1.34 1.13 0.74 0.58 0.43 0.51 0.66 0.59 0.53 0.78 1.12 1.03 1.31 1.51 1.10 0.95 0.94 1.02 1.31 1.94 2.17 2.14 2.08 1.95 1.78 1.82 1.91 1.95 1.91 1.82 1.89 2.07 2.34 2.47 2.66 2.79 2.68 2.82 2.90 2.93 2.79 2.92 2.78 2.68
0.62 0.91 1.17 1.15 0.69 0.53 0.58 0.60 0.56 0.56 0.74 0.85 0.73 0.73 0.94 1.05 1.07 1.16 1.02 0.90 0.86 1.03 1.12 1.48 1.95 2.03 2.07 2.03 1.95 1.83 1.89 2.01 2.00 1.94 1.92 2.05 2.09 2.17 2.17 2.30 2.53 2.61 2.72 2.87 3.00 2.91 2.87 2.71 2.71
0.66 0.96 1.25 0.76 0.38 0.36 0.36 0.40 0.55 0.62 0.86 0.92 0.70 0.94 1.38 1.39 1.06 0.97 0.82 0.84 0.88 1.07 1.28 1.62 1.98 2.05 2.14 1.93 1.86 1.88 1.88 1.92 1.94 1.94 1.85 1.95 2.03 2.10 2.12 2.17 2.37 2.62 2.88 2.94 2.93 2.95 2.84 2.85 3.05
0.81 0.91 0.89 0.54 0.30 0.26 0.28 0.35 0.51 0.63 0.81 0.88 0.76 1.17 1.82 1.86 1.46 1.23 1.08 1.24 1.25 1.39 1.54 1.91 2.23 2.33 2.35 2.08 1.97 1.95 1.91 1.86 1.88 1.89 1.88 1.79 1.88 1.98 2.01 2.09 2.26 2.60 3.06 2.99 2.84 2.82 2.69 2.76 2.88
0.78 0.68 0.51 0.29 0.20 0.22 0.26 0.32 0.51 0.66 0.82 1.02 1.00 1.33 1.91 2.29 1.87 1.54 1.46 1.58 1.67 1.69 1.81 2.01 2.31 2.38 2.40 2.23 2.18 2.03 1.92 1.92 1.99 2.00 1.86 1.79 1.83 1.81 1.74 1.86 2.16 2.44 2.92 2.81 2.79 2.72 2.62 2.58 2.72
0.43 0.40 0.31 0.17 0.12 0.18 0.21 0.29 0.44 0.62 0.88 1.00 1.02 1.24 1.63 1.83 1.72 1.75 1.87 1.96 2.10 2.07 2.01 1.90 1.96 2.12 2.02 1.86 2.02 1.97 1.93 2.05 2.15 2.17 2.02 2.07 2.06 1.84 1.85 1.94 2.18 2.41 2.62 2.52 2.51 2.53 2.54 2.54 2.70
0.28 0.31 0.22 0.14 0.08 0.13 0.20 0.35 0.49 0.53 0.71 1.03 1.25 1.12 1.05 1.26 1.69 2.02 2.48 2.56 2.64 2.44 2.06 1.81 1.78 1.92 1.91 1.71 1.74 2.16 2.27 2.30 2.41 2.55 2.54 2.72 2.76 2.30 2.33 2.10 2.33 2.59 2.55 2.49 2.64 2.69 2.77 2.93 2.90
0.19 0.21 0.14 0.08 0.05 0.08 0.19 0.42 0.58 0.72 1.06 1.42 1.58 1.38 1.16 1.26 1.83 2.26 2.58 2.84 2.51 2.49 2.41 2.15 1.94 1.85 1.90 1.73 1.92 2.64 2.60 2.62 2.88 3.15 3.01 3.15 2.95 2.67 2.09 2.24 2.82 2.96 2.96 3.05 3.38 3.57 3.28 3.13 3.06
0.13 0.11 0.07 0.06 0.06 0.09 0.22 0.26 0.35 0.63 1.27 1.68 1.87 1.52 1.30 1.46 1.94 2.51 2.77 2.75 2.50 2.46 2.32 2.41 2.27 2.10 2.07 2.26 2.20 2.49 2.83 2.99 3.10 3.06 3.01 3.11 2.62 2.28 2.20 2.76 3.31 3.20 3.13 3.31 3.63 3.89 3.16 3.24 3.87
0.07 0.06 0.04 0.05 0.06 0.08 0.14 0.23 0.39 0.70 1.19 1.46 1.37 1.22 1.27 1.53 1.86 2.53 2.97 2.89 2.75 2.71 2.58 2.86 2.78 2.71 2.72 2.56 2.56 2.43 2.47 2.53 2.56 2.69 2.57 2.67 2.79 2.73 2.85 3.21 3.30 3.31 3.44 3.78 3.61 3.80 3.69 3.87 3.90
0.06 0.06 0.06 0.06 0.06 0.09 0.13 0.24 0.37 0.64 0.90 0.97 0.89 1.05 1.51 1.65 2.00 2.67 3.26 3.22 3.17 3.08 3.16 3.30 3.32 3.45 3.29 3.10 2.97 2.47 2.49 2.37 2.27 2.34 2.32 2.49 2.85 3.03 3.34 3.24 3.28 2.99 3.15 3.46 3.77 3.77 4.02 4.34 4.23
0.05 0.06 0.07 0.09 0.12 0.12 0.16 0.27 0.44 0.84 0.84 0.77 0.91 1.22 1.61 2.06 2.27 2.74 3.46 3.68 3.59 3.60 3.85 3.83 3.83 3.87 3.72 3.37 3.16 2.87 2.51 2.51 2.27 2.27 2.33 2.82 3.12 3.28 3.57 3.44 3.32 2.98 3.00 3.34 3.65 3.67 4.04 4.20 4.27
0.08 0.12 0.18 0.20 0.20 0.21 0.26 0.66 0.79 0.89 0.85 0.84 1.08 1.34 1.84 2.47 2.74 3.01 3.50 3.87 3.99 4.25 4.45 4.66 4.55 4.24 4.32 3.99 3.26 2.75 2.47 2.29 2.41 2.57 2.62 2.95 3.13 3.50 3.82 3.75 3.31 3.04 3.14 3.35 3.31 3.44 3.97 3.92 3.85
0.14 0.19 0.38 0.33 0.23 0.25 0.38 0.97 0.97 0.92 0.96 1.04 1.26 1.62 1.98 2.47 2.60 2.86 3.31 3.87 4.38 4.77 5.19 5.41 5.01 4.90 4.94 4.65 4.08 3.49 3.13 2.97 3.01 3.02 2.87 2.69 2.89 3.10 3.52 3.31 2.88 2.93 3.11 3.32 3.36 3.32 3.72 3.90 3.92
0.20 0.26 0.38 0.35 0.24 0.24 0.36 0.82 0.81 0.67 1.01 1.41 1.65 1.81 1.97 2.15 2.31 2.52 2.93 3.62 4.44 5.03 5.77 6.19 6.42 5.92 5.55 5.00 4.59 4.05 3.74 3.56 3.30 3.02 2.78 2.50 2.27 2.21 2.64 2.64 2.57 2.59 2.86 2.96 2.63 2.88 3.22 3.45 3.64
0.18 0.25 0.33 0.42 0.29 0.28 0.44 0.72 0.82 0.71 1.00 1.36 1.42 1.67 1.76 1.79 2.02 2.42 2.94 3.49 4.37 5.14 5.87 6.30 6.57 6.06 5.37 5.07 5.05 4.71 4.12 3.65 3.26 2.94 2.76 2.37 2.26 2.05 2.33 2.38 2.23 2.19 2.43 2.58 2.72 3.04 3.11 2.98 3.06
0.10 0.20 0.31 0.32 0.27 0.37 0.56 0.83 0.95 0.93 0.98 1.12 1.25 1.41 1.42 1.47 1.76 2.23 2.87 3.56 4.39 5.51 6.19 6.34 6.11 5.45 4.97 4.56 4.33 4.06 3.81 3.52 3.01 2.61 2.39 2.29 2.21 2.22 2.53 2.34 2.39 2.22 2.28 2.37 2.43 2.67 2.79 2.56 2.74
0.08 0.16 0.25 0.24 0.20 0.24 0.52 0.92 1.04 1.05 1.11 1.10 1.17 1.22 1.14 1.28 1.64 2.24 3.00 3.81 4.51 5.06 5.42 5.51 5.15 4.43 3.96 3.75 3.74 3.47 3.27 2.94 2.71 2.46 2.48 2.14 2.06 2.15 2.11 2.34 2.18 2.14 2.39 2.35 2.43 2.65 2.61 2.34 2.52
0.10 0.13 0.20 0.24 0.21 0.26 0.52 1.13 1.32 1.20 1.15 1.11 1.01 0.98 1.07 1.31 1.84 2.61 3.40 4.18 4.50 4.54 4.32 4.01 3.84 3.49 3.41 3.41 3.26 3.06 3.00 2.72 2.54 2.34 2.29 1.97 1.76 1.80 1.92 1.99 1.98 2.14 2.08 2.28 2.43 2.51 2.72 2.67 2.42
0.11 0.11 0.11 0.13 0.20 0.46 0.62 1.24 1.38 1.34 1.25 1.09 1.08 1.08 1.20 1.49 2.01 2.69 3.22 3.46 3.61 3.54 3.25 3.07 3.02 2.97 2.93 2.87 2.78 2.51 2.38 2.37 2.23 2.16 2.20 2.09 1.82 1.79 1.84 1.87 2.05 2.12 2.00 2.31 2.02 2.19 2.58 2.75 2.48
0.08 0.07 0.11 0.16 0.27 0.51 0.66 1.02 1.36 1.33 1.40 0.98 0.85 0.95 1.07 1.34 1.66 1.83 2.02 2.15 2.26 2.29 2.45 2.53 2.68 2.82 2.73 2.68 2.69 2.64 2.36 2.32 2.30 2.31 2.43 2.32 2.07 1.88 1.70 1.88 2.15 2.25 2.11 2.15 2.18 2.44 2.42 2.44 2.40
0.06 0.08 0.16 0.29 0.48 0.89 0.88 1.05 1.40 1.37 1.27 0.88 0.68 0.71 0.92 1.06 1.10 1.18 1.26 1.36 1.57 1.62 1.84 2.04 2.17 2.32 2.49 2.53 2.39 2.34 2.31 2.40 2.46 2.43 2.29 2.11 2.00 1.91 1.81 1.96 2.22 2.25 2.30 2.27 2.21 2.23 2.23 2.39 2.49
0.07 0.14 0.42 0.82 1.18 1.22 0.77 0.88 1.32 1.22 0.90 0.64 0.55 0.54 0.58 0.73 0.86 1.00 1.11 1.21 1.42 1.37 1.45 1.68 1.77 1.77 1.91 1.96 1.94 2.01 2.19 2.27 2.15 2.07 2.01 1.92 1.70 1.73 1.86 1.97 2.20 2.19 2.20 2.15 2.36 2.36 2.26 2.36 2.39
0.10 0.15 0.33 0.58 0.68 0.83 0.87 1.35 1.54 0.96 0.65 0.51 0.48 0.47 0.47 0.63 0.76 0.85 0.85 0.94 1.09 1.09 1.22 1.35 1.44 1.50 1.56 1.66 1.79 1.76 1.91 1.93 1.85 1.97 1.85 1.77 1.53 1.44 1.57 1.74 1.80 1.89 1.94 1.90 2.40 2.29 2.31 2.39 2.24
0.09 0.11 0.16 0.23 0.32 0.67 1.10 1.43 1.37 0.88 0.73 0.58 0.49 0.49 0.50 0.48 0.62 0.69 0.65 0.64 0.78 0.91 1.04 1.13 1.21 1.33 1.37 1.52 1.62 1.60 1.69 1.79 1.86 1.88 1.78 1.61 1.64 1.48 1.54 1.63 1.85 1.99 2.05 2.12 2.41 2.34 2.32 2.49 2.26
0.11 0.14 0.17 0.22 0.33 0.63 1.02 1.51 1.75 1.28 0.77 0.65 0.59 0.56 0.59 0.50 0.54 0.59 0.60 0.53 0.62 0.78 1.05 1.12 1.14 1.30 1.33 1.44 1.47 1.34 1.52 1.65 1.83 1.80 1.70 1.64 1.66 1.62 1.74 1.84 2.00 2.11 2.08 2.12 2.34 2.29 2.40 2.52 2.38
0.15 0.13 0.16 0.20 0.24 0.44 0.88 1.18 1.01 0.99 0.79 0.83 0.78 0.67 0.63 0.59 0.60 0.57 0.55 0.55 0.53 0.66 0.88 0.96 1.13 1.25 1.31 1.40 1.51 1.58 1.59 1.53 1.67 1.72 1.70 1.72 1.75 1.73 1.81 1.92 2.08 2.11 2.18 2.30 2.42 2.24 2.35 2.48 2.64
0.16 0.17 0.17 0.21 0.25 0.28 0.44 0.67 0.65 0.84 0.80 0.80 0.86 0.79 0.71 0.55 0.51 0.55 0.57 0.61 0.58 0.59 0.72 0.89 1.08 1.24 1.30 1.38 1.54 1.65 1.82 1.78 1.73 1.72 1.77 1.85 1.97 2.05 2.00 2.07 2.13 2.02 2.08 2.30 2.37 2.36 2.40 2.43 2.48